Regional Weather Roundup
Issued by NWS

Home | Current Version | Previous Version | Graphics & Text | Print | Product List | Glossary On
Versions: 1 2 3 4 5 6 7 8 9 10 11 12 13 14 15 16 17 18 19 20 21 22 23 24 25 26 27 28 29 30 31 32 33 34 35 36 37 38 39 40 41 42 43 44 45 46 47 48 49 50
000
ASUS43 KTOP 260859
RWRKS

WEATHER ROUNDUP FOR KANSAS
NATIONAL WEATHER SERVICE GOODLAND KS
300 AM CST WED NOV 26 2014

NOTE:  "FAIR" INDICATES FEW OR NO CLOUDS BELOW 12,000 FEET WITH NO
SIGNIFICANT WEATHER AND/OR OBSTRUCTIONS TO VISIBILITY.

KSZ001>006-013>018-027>032-041>047-261000-
NORTHWEST KANSAS

CITY           SKY/WX    TMP DP  RH WIND       PRES   REMARKS
GOODLAND       CLOUDY    33  31  92 NW20      30.11R WCI  21
HAYS           CLOUDY    45  27  49 NW10      30.03R
HILL CITY      CLOUDY    43  30  60 NW15G26   30.04R
RUSSELL        CLOUDY    44  30  57 NW16      30.00R
$$

KSZ061>065-074>080-084>089-261000-
SOUTHWEST KANSAS

CITY           SKY/WX    TMP DP  RH WIND       PRES   REMARKS
DODGE CITY     LGT RAIN  40  34  79 N14G24    30.05R WCI  32
ELKHART          N/A     34  20  57 N14         N/A  WCI  25
GARDEN CITY    CLOUDY    37  33  85 N17       30.08R WCI  27
GREAT BEND     CLOUDY    45  27  49 NW9       30.02R
LIBERAL        CLEAR     37  28  70 N17G23    30.08R WCI  28
$$

KSZ066>073-081>083-090>101-261000-
SOUTHEAST KANSAS

CITY           SKY/WX    TMP DP  RH WIND       PRES   REMARKS
CHANUTE        CLOUDY    41  25  53 S9        29.96S
COFFEYVILLE    MOCLDY    39  26  59 S7        29.97S
HUTCHINSON     CLOUDY    44  26  49 NW10      29.99R
MEDICINE LODGE   N/A     45  32  60 N18G25    29.98R
NEWTON         CLOUDY    39  25  56 W9        29.98R
PARSONS        CLOUDY    40  25  55 S8        29.97S
WICHITA INTL   CLOUDY    40  29  64 W5        29.98R
WICHITA JABRA  CLOUDY    41  28  60 SW8       29.97R
WINFIELD       CLOUDY    40  28  62 W5        29.98R
$$

KSZ007>012-019>026-033>040-048>060-102>105-261000-
NORTHEAST KANSAS

CITY           SKY/WX    TMP DP  RH WIND       PRES   REMARKS
CONCORDIA      CLOUDY    42  30  62 NW9       29.96R
EMPORIA        CLOUDY    39  25  57 SW5       29.95R
LAWRENCE       LGT RAIN  41  26  55 W7        29.95R
MANHATTAN      CLOUDY    44  32  62 W6        29.95R
OLATHE IND     CLOUDY    38  24  57 SW10      29.94R WCI  31
OLATHE EXE     CLOUDY    38  23  55 SW8       29.94S
SALINA         CLOUDY    45  31  58 NW10      29.99R
TOPEKA BILLARD CLOUDY    44  26  49 SW9       29.95R
TOPEKA FORBES  LGT RAIN  42  26  53 SW12      29.94R
$$



USA.gov is the U.S. government's official web portal to all federal, state and local government web resources and services.